Flag for Germany Weather past 2 weeks in Rendsburg, Schleswig-Holstein, Germany

Now
59 °F

Fog.


Feels Like: 60 °F
Forecast: 55 / 68 °F
Wind: 3 mph from South

Location: Hohn

Current Time: Oct 2, 2014 at 8:29:31 AM

Latest Report: Oct 2, 2014 at 7:20 AM


Visibility: 1 mi

Pressure: 30.33 "Hg

Humidity: 94%

Dew point: 57 °F

Location of RendsburgLocation

Historic Weather in Rendsburg — Graph

°F

Rendsburg temperature yesterday

Maximum temperature yesterday: 64 °F (at 2:20 PM)
Minimum temperature yesterday: 55 °F (at 6:20 AM)
Average temperature yesterday: 59 °F

Past Weeks' High & Low Weather Summary

 TemperatureHumidityPressure
High73 °F (Sep 17, 1:20 PM)100% (Sep 19, 3:20 AM)30.33 "Hg (Sep 19, 3:20 AM)
Low36 °F (Sep 23, 6:20 AM)50% (Sep 17, 1:20 PM)29.71 "Hg (Sep 24, 4:20 PM)
Average58 °F84%30.04 "Hg
* Reported Sep 17 7:20 AM — Oct 2 7:20 AM, Rendsburg, Weather by CustomWeather, © 2014

Note: Actual official high and low records may vary slightly from our data, if they occured in-between our weather recording intervals... More about our weather records

Advertising

Rendsburg weather history for previous 24 hours

 ConditionsComfort  
Time TempWeatherWind HumidityBarometerVisibility
7:20 AM
Oct 2
59 °FFog.3 mph94%30.33 "Hg1 mi
6:20 AM59 °FFog.3 mph94%30.33 "Hg1 mi
5:20 AM59 °FFog.3 mph94%30.33 "Hg2 mi
4:20 AM59 °FCool.7 mph94%30.33 "Hg2 mi
3:20 AM57 °FCool.6 mph100%30.33 "Hg2 mi
2:20 AM59 °FCool.5 mph94%30.30 "Hg2 mi
1:20 AM59 °FCool.5 mph94%30.30 "Hg2 mi
12:20 AM61 °FCool.7 mph88%30.30 "Hg2 mi
11:20 PM
Oct 1
59 °FCool.2 mph94%30.30 "Hg1 mi
10:20 PM57 °FCool.2 mph94%30.30 "Hg1 mi
9:20 PM55 °FFog.2 mph94%30.30 "Hg2 mi
8:49 PM55 °FFog.No wind94%30.30 "Hg2 mi
8:20 PM57 °FFog.1 mph94%30.30 "Hg2 mi
7:20 PM59 °FPartly sunny.2 mph94%30.30 "Hg4 mi
6:20 PM64 °FPartly sunny.1 mph78%30.27 "Hg5 mi
5:20 PM64 °FPartly sunny.6 mph78%30.27 "Hg5 mi
3:20 PM64 °FBroken clouds.5 mph78%30.27 "Hg4 mi
2:20 PM64 °FPartly sunny.6 mph78%30.27 "Hg3 mi
12:20 PM61 °FPartly sunny.6 mph88%30.27 "Hg4 mi
11:20 AM61 °FFog.6 mph88%30.27 "Hg3 mi
10:20 AM59 °FFog.6 mph94%30.27 "Hg2 mi
9:20 AM57 °FFog.5 mph94%30.27 "Hg1 mi
8:20 AM57 °FFog.5 mph94%30.27 "Hg1 mi
Weather by CustomWeather, © 2014

See weather overviewHow to use our weather pages